FW5905 Weather Reports


time (UTC)temp
C
wind
direction
speed
KPH
gust
KPH
rain 1hr
cm
rain 24hr
cm
rain mn
cm
humidity
%
barometer
mb
20260508104023 17 24 3.2 6.4 0.00 0.71 0.00 91 1013.6
20260508103023 17 42 4.8 11.3 0.00 0.71 0.00 90 1013.6
20260508102024 17 32 1.6 6.4 0.00 0.71 0.00 91 1013.6
20260508101024 17 29 3.2 6.4 0.00 0.71 0.00 90 1013.7
20260508100024 17 24 3.2 11.3 0.00 0.71 0.00 91 1013.9
20260508095024 17 49 3.2 6.4 0.00 0.71 0.00 92 1014.0
20260508094024 16 49 3.2 6.4 0.00 0.71 0.00 93 1014.0
20260508093027 16 35 3.2 4.8 0.00 0.71 0.00 94 1013.9
20260508092023 16 35 1.6 4.8 0.00 0.71 0.00 94 1013.9
20260508091023 16 33 3.2 4.8 0.00 0.71 0.00 95 1014.0
20260508090044 16 25 3.2 6.4 0.00 0.71 0.00 95 1013.7
20260508085024 16 34 1.6 4.8 0.00 0.71 0.00 96 1013.8
20260508084024 15 39 1.6 4.8 0.00 0.71 0.00 97 1013.5
20260508083024 15 35 1.6 4.8 0.00 0.71 0.00 96 1013.7
20260508082044 15 39 1.6 6.4 0.00 0.71 0.00 96 1013.7
20260508081024 15 23 1.6 4.8 0.00 0.71 0.00 97 1013.6
20260508080024 16 32 3.2 9.7 0.00 0.71 0.00 98 1013.4
20260508075024 15 25 1.6 4.8 0.00 0.71 0.00 99 1013.3
20260508074044 15 41 3.2 6.4 0.00 0.71 0.00 99 1013.4
20260508073044 15 29 1.6 4.8 0.00 0.71 0.00 99 1013.3
20260508072024 13 34 1.6 4.8 0.00 0.71 0.00 99 1013.2
20260508071024 13 27 1.6 3.2 0.00 0.71 0.00 99 1013.3
20260508070023 13 25 1.6 3.2 0.00 0.71 0.00 99 1013.2
20260508065024 13 29 1.6 3.2 0.00 0.71 0.00 99 1013.2
20260508064044 13 21 1.6 4.8 0.00 0.71 0.00 99 1013.1
20260508063024 13 26 1.6 3.2 0.00 0.71 0.00 99 1013.1
20260508062024 13 14 0.0 3.2 0.00 0.71 0.00 99 1013.0
20260508061024 13 31 1.6 3.2 0.00 0.71 0.00 99 1012.9
20260508060024 13 28 1.6 3.2 0.00 0.71 0.00 99 1012.8
20260508055024 13 29 1.6 3.2 0.00 0.71 0.00 99 1012.7
20260508054024 13 35 1.6 4.8 0.00 0.71 0.00 99 1012.5
20260508053024 13 26 1.6 3.2 0.00 0.71 0.00 99 1012.3
20260508052024 13 28 1.6 3.2 0.00 0.71 0.00 99 1012.1
20260508051024 13 22 0.0 3.2 0.00 0.71 0.00 99 1011.8
20260508050024 12 15 0.0 3.2 0.00 0.71 0.00 99 1011.7
20260508045024 12 17 0.0 1.6 0.00 0.71 0.00 99 1011.5
20260508044044 12 15 0.0 1.6 0.00 0.71 0.00 99 1011.4
20260508043024 12 23 0.0 1.6 0.00 0.71 0.00 99 1011.5
20260508042024 12 34 0.0 1.6 0.00 0.71 0.00 99 1011.4
20260508041025 12 38 0.0 1.6 0.00 0.71 0.00 99 1011.3
20260508040024 13 22 0.0 1.6 0.00 0.71 0.00 99 1011.2
20260508035024 13 18 0.0 1.6 0.00 0.71 0.00 99 1011.2
20260508034024 13 19 1.6 3.2 0.00 0.71 0.00 99 1011.4
20260508033024 13 24 1.6 3.2 0.00 0.71 0.00 99 1011.6
20260508032044 13 0.0 0.0 0.00 0.71 0.00 99 1011.8
20260508031024 13 15 0.0 1.6 0.00 0.71 0.00 99 1011.7
20260508030023 13 25 0.0 1.6 0.00 0.71 0.00 99 1011.6
20260508025023 13 15 0.0 1.6 0.00 0.74 0.00 99 1011.6
20260508024023 13 38 1.6 4.8 0.00 0.74 0.00 99 1011.6
20260508023043 13 30 1.6 3.2 0.00 0.74 0.00 99 1011.6
20260508022023 12 23 0.0 1.6 0.00 0.74 0.00 99 1011.6
20260508021023 13 24 1.6 3.2 0.00 0.74 0.00 99 1011.4
20260508020024 13 21 1.6 3.2 0.00 0.74 0.00 99 1011.4
20260508015024 12 21 1.6 3.2 0.00 0.74 0.00 99 1011.6
20260508014024 12 25 0.0 3.2 0.00 0.74 0.00 99 1011.7
20260508013024 13 58 0.0 3.2 0.00 0.74 0.00 99 1011.8
20260508012023 13 21 1.6 4.8 0.00 0.74 0.00 99 1011.8
20260508011023 13 29 0.0 3.2 0.00 0.74 0.00 99 1011.8
20260508010024 13 28 1.6 4.8 0.00 0.74 0.00 99 1012.1
20260508005024 13 27 1.6 3.2 0.00 0.74 0.00 99 1012.4
20260508004024 13 47 1.6 3.2 0.03 0.74 0.00 99 1012.3
20260508003024 13 22 1.6 3.2 0.03 0.74 0.00 99 1012.4
20260508002024 13 21 0.0 1.6 0.03 0.74 0.00 99 1012.4
20260508001024 13 33 1.6 3.2 0.03 0.74 0.00 99 1012.3
20260508000024 13 23 1.6 3.2 0.03 0.74 0.00 99 1012.5
20260507235024 13 27 1.6 3.2 0.05 0.74 0.74 99 1012.5
20260507234024 13 30 0.0 3.2 0.05 0.71 0.71 99 1012.6
20260507233024 13 28 1.6 3.2 0.05 0.71 0.71 99 1012.9
20260507232024 13 20 1.6 3.2 0.08 0.71 0.71 99 1013.0
20260507231024 13 41 1.6 3.2 0.08 0.71 0.71 99 1013.1
20260507230023 13 19 0.0 1.6 0.08 0.71 0.71 99 1013.1
20260507225043 13 18 0.0 1.6 0.05 0.69 0.69 99 1013.3
20260507224023 13 16 0.0 3.2 0.03 0.66 0.66 99 1013.3
20260507223024 13 27 1.6 3.2 0.03 0.66 0.66 99 1013.3
20260507222023 13 41 1.6 4.8 0.00 0.64 0.64 99 1013.2
20260507221023 13 32 1.6 4.8 0.00 0.64 0.64 99 1013.2
20260507220024 13 33 1.6 6.4 0.00 0.64 0.64 99 1013.2
20260507215024 13 33 1.6 4.8 0.00 0.64 0.64 99 1013.1
20260507214024 13 36 1.6 4.8 0.00 0.64 0.64 99 1013.1
20260507213024 13 49 1.6 3.2 0.00 0.64 0.64 99 1012.9
20260507212024 13 41 1.6 3.2 0.00 0.64 0.64 99 1013.1
20260507211024 13 17 1.6 3.2 0.00 0.64 0.64 99 1013.1
20260507210024 13 36 1.6 3.2 0.03 0.64 0.64 99 1013.2
20260507205023 13 31 1.6 3.2 0.03 0.64 0.64 99 1012.9
20260507204024 13 31 1.6 4.8 0.03 0.64 0.64 99 1012.9
20260507203024 13 32 3.2 6.4 0.03 0.64 0.64 99 1012.7
20260507202024 13 50 3.2 6.4 0.05 0.64 0.64 99 1012.8
20260507201024 13 43 3.2 6.4 0.05 0.64 0.64 99 1012.7
20260507200044 13 39 1.6 4.8 0.03 0.61 0.61 99 1012.6
20260507195024 13 43 1.6 4.8 0.05 0.61 0.61 99 1012.4
20260507194024 13 28 1.6 3.2 0.05 0.61 0.61 99 1012.4
20260507193024 13 79 3.2 6.4 0.05 0.61 0.61 99 1012.1
20260507192024 13 43 1.6 3.2 0.03 0.58 0.58 99 1012.2
20260507191023 13 24 1.6 4.8 0.03 0.58 0.58 99 1012.2
20260507190024 13 28 1.6 4.8 0.03 0.58 0.58 99 1012.1
20260507185024 13 23 1.6 3.2 0.00 0.56 0.56 99 1012.1
20260507184024 13 17 1.6 3.2 0.03 0.56 0.56 99 1011.9
20260507183024 13 25 1.6 3.2 0.05 0.56 0.56 99 1011.8
20260507182023 14 22 1.6 4.8 0.08 0.56 0.56 99 1011.6
20260507181023 14 22 1.6 3.2 0.10 0.56 0.56 99 1011.4
20260507180024 14 27 1.6 3.2 0.13 0.56 0.56 99 1011.3
20260507175024 14 58 1.6 3.2 0.18 0.56 0.56 99 1011.2
20260507174024 14 40 1.6 3.2 0.23 0.53 0.53 99 1011.1
20260507173044 14 28 1.6 3.2 0.23 0.51 0.51 99 1011.1
20260507172024 14 18 1.6 4.8 0.25 0.48 0.48 99 1011.1
20260507171024 14 32 3.2 6.4 0.28 0.46 0.46 99 1011.2
20260507170023 14 32 3.2 6.4 0.30 0.43 0.43 99 1011.4
20260507165023 14 30 3.2 6.4 0.28 0.38 0.38 99 1011.4
20260507164044 14 27 4.8 9.7 0.20 0.30 0.30 99 1011.5
20260507163024 15 32 3.2 4.8 0.20 0.28 0.28 99 1011.5
20260507162024 15 27 1.6 4.8 0.20 0.23 0.23 99 1011.4
20260507161024 15 39 1.6 4.8 0.15 0.18 0.18 99 1011.4
20260507160024 15 56 1.6 4.8 0.10 0.13 0.13 98 1011.4
20260507155024 15 39 1.6 6.4 0.08 0.10 0.10 98 1011.5
20260507154024 15 46 1.6 6.4 0.08 0.10 0.10 97 1011.4
20260507153024 15 25 3.2 6.4 0.05 0.08 0.08 96 1011.4
20260507152024 15 39 3.2 9.7 0.00 0.03 0.03 93 1011.5
20260507151024 15 39 4.8 14.5 0.00 0.03 0.03 94 1011.5
20260507150023 15 49 4.8 12.9 0.00 0.03 0.03 95 1011.4
20260507145023 16 56 6.4 14.5 0.00 0.03 0.03 94 1011.5
20260507144023 16 53 4.8 14.5 0.00 0.03 0.03 92 1011.4
20260507143043 16 56 4.8 12.9 0.00 0.03 0.03 91 1011.4
20260507142024 16 40 4.8 12.9 0.00 0.03 0.03 91 1011.5
20260507141024 17 65 6.4 12.9 0.00 0.03 0.03 85 1011.5
20260507140024 18 44 3.2 11.3 0.00 0.03 0.03 78 1011.6
20260507135205 18 35 4.8 11.3 0.00 0.03 0.03 77 1011.7
20260507134024 18 51 4.8 12.9 0.00 0.03 0.03 79 1011.7
20260507133044 18 24 4.8 11.3 0.00 0.03 0.03 81 1011.8
20260507132024 17 61 3.2 12.9 0.00 0.03 0.03 84 1011.9
20260507131044 17 29 3.2 9.7 0.00 0.03 0.03 85 1011.9
20260507130024 18 40 4.8 12.9 0.00 0.20 0.03 83 1011.9
20260507125024 18 45 3.2 6.4 0.00 0.23 0.03 82 1011.9
20260507124024 18 29 4.8 14.5 0.00 0.23 0.03 81 1012.0
20260507123024 18 28 3.2 11.3 0.00 0.28 0.03 81 1012.1
20260507122044 18 33 4.8 11.3 0.00 0.30 0.03 79 1012.1
20260507121024 18 49 4.8 14.5 0.00 0.30 0.03 78 1012.1
20260507120023 19 30 6.4 12.9 0.00 0.61 0.03 76 1012.2
20260507115024 18 55 4.8 12.9 0.00 0.86 0.03 78 1012.3
20260507114023 18 27 4.8 11.3 0.00 0.86 0.03 80 1012.5
20260507113024 18 44 3.2 9.7 0.00 0.86 0.03 79 1012.6
20260507112024 18 59 4.8 16.1 0.00 0.86 0.03 80 1012.7
20260507111024 18 35 4.8 9.7 0.00 0.86 0.03 80 1012.8
20260507110023 18 35 4.8 11.3 0.00 0.86 0.03 80 1012.7
20260507105104 18 43 6.4 12.9 0.00 0.86 0.03 80 1012.8